Location: Bakhuizen
(52.8696°N, 5.4575°E)
Time: 07:48:07
(UTC+00:00)

CARTOSAT-1 - Pass Details

Date: 11 May 2021
Orbit: 616 x 618 km, 97.8° (Epoch: 15 June)

Event Time Altitude Azimuth Distance (km) Brightness Sun altitude
Exits shadow 20:56:44 13° 170° (S) 1,807 5.4 -11.3°
Maximum altitude 21:00:37 78° 256° (WSW) 638 3.6 -11.6°
Drops below altitude 10° 21:04:58 10° 344° (NNW) 1,995 7.4 -12.0°
Sets 21:07:10 0° 345° (NNW) 2,905 8.4 -12.2°
